| time (UTC) | temp C | wind direction | speed KPH | gust KPH | rain 1hr cm | rain 24hr cm | rain mn cm | humidity % | barometer mb |
| 20260506152703 | 19 | 113 | 6.4 | 11.3 | 0.00 | 1.88 | 1.80 | 81 | 1011.0 |
| 20260506151803 | 19 | 122 | 3.2 | 9.7 | 0.00 | 1.93 | 1.80 | 81 | 1011.2 |
| 20260506150903 | 19 | 141 | 1.6 | 6.4 | 0.00 | 1.93 | 1.80 | 79 | 1011.3 |
| 20260506150217 | 20 | 170 | 3.2 | 12.9 | 0.00 | 1.93 | 1.80 | 81 | 1011.3 |
| 20260506145403 | 18 | 108 | 6.4 | 12.9 | 0.00 | 1.96 | 1.80 | 82 | 1011.6 |
| 20260506144503 | 18 | 113 | 1.6 | 6.4 | 0.00 | 1.96 | 1.80 | 84 | 1011.5 |
| 20260506143603 | 17 | 77 | 0.0 | 6.4 | 0.00 | 1.96 | 1.80 | 86 | 1011.6 |
| 20260506142917 | 17 | 53 | 3.2 | 6.4 | 0.00 | 1.96 | 1.80 | 88 | 1011.5 |
| 20260506141803 | 16 | 49 | 1.6 | 3.2 | 0.00 | 1.98 | 1.80 | 88 | 1011.5 |
| 20260506141118 | 16 | 33 | 1.6 | 6.4 | 0.00 | 1.98 | 1.80 | 88 | 1011.5 |
| 20260506140003 | 16 | 347 | 3.2 | 3.2 | 0.00 | 2.01 | 1.80 | 88 | 1011.9 |
| 20260506135403 | 16 | 2 | 1.6 | 3.2 | 0.00 | 2.01 | 1.80 | 88 | 1011.8 |
| 20260506134503 | 16 | 356 | 1.6 | 6.4 | 0.00 | 2.03 | 1.80 | 89 | 1011.9 |
| 20260506133603 | 16 | 68 | 3.2 | 6.4 | 0.00 | 2.03 | 1.80 | 88 | 1011.7 |
| 20260506132703 | 16 | 44 | 3.2 | 9.7 | 0.00 | 2.03 | 1.80 | 88 | 1011.8 |
| 20260506131804 | 17 | 129 | 4.8 | 6.4 | 0.00 | 2.03 | 1.80 | 85 | 1012.2 |
| 20260506130903 | 17 | 177 | 3.2 | 12.9 | 0.00 | 2.03 | 1.80 | 85 | 1012.3 |
| 20260506130004 | 17 | 190 | 4.8 | 9.7 | 0.00 | 2.03 | 1.80 | 84 | 1012.2 |
| 20260506125403 | 17 | 195 | 3.2 | 9.7 | 0.00 | 2.03 | 1.80 | 85 | 1012.2 |
| 20260506124503 | 17 | 218 | 3.2 | 6.4 | 0.00 | 2.03 | 1.80 | 85 | 1012.3 |
| 20260506123603 | 16 | 181 | 1.6 | 14.5 | 0.00 | 2.06 | 1.80 | 87 | 1012.4 |
| 20260506122703 | 16 | 206 | 3.2 | 17.7 | 0.00 | 2.06 | 1.80 | 90 | 1012.4 |
| 20260506121803 | 16 | 190 | 8.0 | 17.7 | 0.00 | 2.06 | 1.80 | 88 | 1012.5 |
| 20260506120903 | 16 | 289 | 3.2 | 12.9 | 0.00 | 2.06 | 1.80 | 89 | 1012.5 |
| 20260506120004 | 16 | 208 | 4.8 | 12.9 | 0.00 | 2.06 | 1.80 | 88 | 1012.3 |
| 20260506115617 | 16 | 198 | 6.4 | 12.9 | 0.00 | 2.06 | 1.80 | 87 | 1012.1 |
| 20260506114503 | 16 | 173 | 3.2 | 12.9 | 0.00 | 2.06 | 1.80 | 86 | 1012.2 |
| 20260506113603 | 16 | 162 | 4.8 | 14.5 | 0.00 | 2.06 | 1.80 | 86 | 1012.4 |
| 20260506112703 | 16 | 196 | 3.2 | 20.9 | 0.00 | 2.11 | 1.80 | 87 | 1012.5 |
| 20260506111803 | 16 | 173 | 6.4 | 20.9 | 0.00 | 2.11 | 1.80 | 86 | 1012.6 |
| 20260506110903 | 16 | 171 | 3.2 | 14.5 | 0.00 | 2.11 | 1.80 | 87 | 1012.5 |
| 20260506110003 | 16 | 150 | 8.0 | 29.0 | 0.00 | 2.11 | 1.80 | 88 | 1012.3 |
| 20260506105403 | 16 | 130 | 6.4 | 29.0 | 0.00 | 2.11 | 1.80 | 87 | 1012.6 |
| 20260506104503 | 16 | 137 | 8.0 | 17.7 | 0.00 | 2.11 | 1.80 | 89 | 1012.5 |
| 20260506103603 | 16 | 134 | 6.4 | 14.5 | 0.03 | 2.11 | 1.80 | 90 | 1012.5 |
| 20260506102703 | 16 | 143 | 6.4 | 17.7 | 0.03 | 2.11 | 1.80 | 91 | 1012.8 |
| 20260506101803 | 15 | 133 | 6.4 | 20.9 | 0.15 | 2.11 | 1.80 | 92 | 1012.8 |
| 20260506100903 | 15 | 128 | 11.3 | 17.7 | 0.18 | 2.11 | 1.80 | 92 | 1012.7 |
| 20260506100003 | 15 | 151 | 4.8 | 17.7 | 0.23 | 2.11 | 1.80 | 93 | 1012.9 |
| 20260506095403 | 15 | 124 | 4.8 | 17.7 | 0.28 | 2.13 | 1.80 | 94 | 1013.0 |
| 20260506094718 | 14 | 147 | 3.2 | 14.5 | 0.30 | 2.13 | 1.80 | 95 | 1012.8 |
| 20260506093603 | 14 | 122 | 6.4 | 12.9 | 0.38 | 2.11 | 1.78 | 96 | 1013.1 |
| 20260506092917 | 14 | 112 | 1.6 | 14.5 | 0.48 | 2.11 | 1.78 | 96 | 1012.9 |
| 20260506091803 | 14 | 87 | 3.2 | 6.4 | 0.48 | 1.98 | 1.65 | 97 | 1012.8 |
| 20260506090903 | 14 | 95 | 3.2 | 9.7 | 0.51 | 1.96 | 1.63 | 97 | 1013.1 |
| 20260506090003 | 14 | 69 | 3.2 | 11.3 | 0.53 | 1.88 | 1.55 | 97 | 1012.8 |
| 20260506085403 | 14 | 72 | 3.2 | 9.7 | 0.56 | 1.85 | 1.52 | 97 | 1012.8 |
| 20260506084503 | 14 | 75 | 3.2 | 6.4 | 0.64 | 1.83 | 1.50 | 97 | 1013.0 |
| 20260506083603 | 14 | 84 | 3.2 | 3.2 | 0.53 | 1.70 | 1.37 | 97 | 1012.7 |
| 20260506082703 | 14 | 101 | 3.2 | 3.2 | 0.51 | 1.60 | 1.27 | 97 | 1012.9 |
| 20260506081803 | 14 | 98 | 3.2 | 6.4 | 0.51 | 1.50 | 1.17 | 97 | 1013.0 |
| 20260506080903 | 14 | 97 | 1.6 | 3.2 | 0.53 | 1.45 | 1.12 | 98 | 1012.9 |
| 20260506072703 | 14 | 45 | 1.6 | 6.4 | 0.61 | 1.09 | 0.76 | 97 | 1012.6 |
| 20260506071803 | 14 | 11 | 3.2 | 6.4 | 0.53 | 0.99 | 0.66 | 97 | 1012.6 |
| 20260506070903 | 14 | 28 | 3.2 | 6.4 | 0.46 | 0.89 | 0.56 | 97 | 1012.5 |
| 20260506070218 | 14 | 27 | 3.2 | 3.2 | 0.38 | 0.84 | 0.51 | 97 | 1012.6 |
| 20260506061803 | 14 | 14 | 0.0 | 3.2 | 0.13 | 0.46 | 0.13 | 97 | 1012.6 |
| 20260506060903 | 14 | 42 | 0.0 | 3.2 | 0.13 | 0.46 | 0.13 | 97 | 1012.5 |
| 20260506050903 | 13 | 67 | 0.0 | 3.2 | 0.00 | 0.33 | 0.00 | 97 | 1012.3 |
| 20260506044503 | 13 | 51 | 1.6 | 3.2 | 0.00 | 0.33 | 0.00 | 97 | 1012.1 |
| 20260506043603 | 13 | 22 | 0.0 | 3.2 | 0.00 | 0.33 | 0.00 | 97 | 1012.4 |
| 20260506042703 | 13 | 122 | 0.0 | 3.2 | 0.00 | 0.33 | 0.00 | 97 | 1012.4 |
| 20260506042018 | 13 | 117 | 0.0 | 3.2 | 0.00 | 0.33 | 0.00 | 96 | 1012.6 |
| 20260506040903 | 13 | 22 | 1.6 | 3.2 | 0.00 | 0.33 | 0.00 | 96 | 1012.4 |
| 20260506040003 | 13 | 18 | 3.2 | 3.2 | 0.00 | 0.33 | 0.00 | 96 | 1012.5 |
| 20260506035403 | 13 | 70 | 0.0 | 3.2 | 0.00 | 0.33 | 0.00 | 96 | 1012.5 |
| 20260506034503 | 13 | 106 | 1.6 | 3.2 | 0.00 | 0.33 | 0.00 | 96 | 1012.6 |
| 20260506033603 | 13 | 360 | 0.0 | 3.2 | 0.00 | 0.33 | 0.00 | 95 | 1012.6 |
| 20260506032703 | 13 | 17 | 3.2 | 3.2 | 0.00 | 0.33 | 0.00 | 95 | 1012.7 |
| 20260506031803 | 13 | 62 | 1.6 | 3.2 | 0.00 | 0.33 | 0.00 | 95 | 1012.8 |
| 20260506030903 | 13 | 64 | 3.2 | 3.2 | 0.00 | 0.33 | 0.00 | 95 | 1012.8 |
| 20260506030003 | 13 | 44 | 1.6 | 3.2 | 0.00 | 0.33 | 0.00 | 94 | 1013.0 |
| 20260506025403 | 13 | 45 | 0.0 | 3.2 | 0.00 | 0.33 | 0.00 | 94 | 1013.1 |
| 20260506024503 | 13 | 360 | 0.0 | 3.2 | 0.00 | 0.33 | 0.00 | 94 | 1013.1 |
| 20260506023603 | 13 | 28 | 0.0 | 3.2 | 0.00 | 0.33 | 0.00 | 94 | 1013.1 |
| 20260506022703 | 13 | 135 | 0.0 | 3.2 | 0.00 | 0.33 | 0.00 | 94 | 1013.3 |
| 20260506021803 | 13 | 360 | 0.0 | 3.2 | 0.00 | 0.33 | 0.00 | 94 | 1013.2 |
| 20260506020903 | 13 | 4 | 0.0 | 3.2 | 0.00 | 0.33 | 0.00 | 94 | 1013.3 |
| 20260506020003 | 13 | 306 | 0.0 | 3.2 | 0.00 | 0.33 | 0.00 | 94 | 1013.4 |
| 20260506015403 | 13 | 331 | 1.6 | 3.2 | 0.00 | 0.33 | 0.00 | 93 | 1013.4 |
| 20260506014503 | 14 | 18 | 1.6 | 3.2 | 0.00 | 0.33 | 0.00 | 93 | 1013.4 |
| 20260506013603 | 14 | 355 | 1.6 | 3.2 | 0.00 | 0.33 | 0.00 | 93 | 1013.3 |
| 20260506012703 | 14 | 351 | 3.2 | 6.4 | 0.00 | 0.33 | 0.00 | 93 | 1013.4 |
| 20260506011803 | 14 | 26 | 0.0 | 9.7 | 0.00 | 0.33 | 0.00 | 94 | 1013.3 |
| 20260506010903 | 13 | 344 | 3.2 | 6.4 | 0.00 | 0.33 | 0.00 | 95 | 1013.0 |
| 20260506010003 | 13 | 2 | 0.0 | 3.2 | 0.00 | 0.33 | 0.00 | 95 | 1013.4 |
| 20260506005617 | 13 | 10 | 0.0 | 3.2 | 0.00 | 0.33 | 0.00 | 95 | 1013.2 |
| 20260506004504 | 13 | 339 | 1.6 | 3.2 | 0.00 | 0.33 | 0.00 | 95 | 1013.2 |
| 20260506003603 | 13 | 326 | 1.6 | 3.2 | 0.00 | 0.33 | 0.00 | 94 | 1013.0 |
| 20260506002703 | 13 | 72 | 1.6 | 3.2 | 0.00 | 0.33 | 0.00 | 94 | 1013.0 |
| 20260506001803 | 13 | 19 | 0.0 | 3.2 | 0.00 | 0.33 | 0.00 | 93 | 1013.2 |
| 20260506000903 | 13 | 18 | 1.6 | 3.2 | 0.00 | 0.33 | 0.00 | 93 | 1013.2 |
| 20260506000219 | 13 | 28 | 3.2 | 6.4 | 0.00 | 0.33 | 0.00 | 93 | 1013.3 |
| 20260505235403 | 13 | 31 | 3.2 | 6.4 | 0.00 | 0.33 | 0.00 | 93 | 1013.3 |
| 20260505234503 | 13 | 64 | 0.0 | 6.4 | 0.00 | 0.33 | 0.00 | 92 | 1013.5 |
| 20260505233603 | 13 | 73 | 1.6 | 6.4 | 0.00 | 0.33 | 0.00 | 93 | 1013.6 |
| 20260505232703 | 13 | 97 | 3.2 | 3.2 | 0.00 | 0.33 | 0.00 | 95 | 1013.7 |
| 20260505231803 | 13 | 88 | 0.0 | 3.2 | 0.00 | 0.33 | 0.00 | 95 | 1013.8 |
| 20260505230903 | 13 | 273 | 0.0 | 3.2 | 0.00 | 0.33 | 0.00 | 96 | 1013.8 |
| 20260505230003 | 13 | 292 | 1.6 | 3.2 | 0.00 | 0.33 | 0.00 | 97 | 1014.0 |
| 20260505225403 | 13 | 7 | 1.6 | 6.4 | 0.00 | 0.33 | 0.00 | 97 | 1013.9 |
| 20260505224503 | 13 | 40 | 3.2 | 6.4 | 0.00 | 0.33 | 0.00 | 97 | 1013.8 |
| 20260505223603 | 13 | 67 | 3.2 | 3.2 | 0.00 | 0.33 | 0.00 | 97 | 1014.0 |
| 20260505222703 | 13 | 95 | 1.6 | 6.4 | 0.00 | 0.33 | 0.00 | 97 | 1014.0 |
| 20260505222018 | 13 | 76 | 1.6 | 6.4 | 0.00 | 0.33 | 0.00 | 97 | 1014.2 |
| 20260505220903 | 13 | 45 | 0.0 | 3.2 | 0.00 | 0.33 | 0.00 | 97 | 1014.3 |
| 20260505220004 | 13 | 15 | 1.6 | 3.2 | 0.00 | 0.33 | 0.00 | 97 | 1014.3 |
| 20260505215403 | 13 | 354 | 1.6 | 3.2 | 0.00 | 0.33 | 0.33 | 97 | 1014.3 |
| 20260505214503 | 13 | 331 | 1.6 | 3.2 | 0.00 | 0.33 | 0.33 | 97 | 1014.2 |
| 20260505213603 | 13 | 16 | 0.0 | 6.4 | 0.00 | 0.33 | 0.33 | 97 | 1014.1 |
| 20260505212703 | 13 | 32 | 0.0 | 3.2 | 0.00 | 0.33 | 0.33 | 97 | 1014.2 |
| 20260505211803 | 13 | 27 | 0.0 | 3.2 | 0.03 | 0.33 | 0.33 | 97 | 1014.2 |
| 20260505210903 | 13 | 6 | 0.0 | 3.2 | 0.05 | 0.33 | 0.33 | 97 | 1014.5 |
| 20260505210003 | 13 | 337 | 1.6 | 3.2 | 0.05 | 0.33 | 0.33 | 97 | 1014.6 |
| 20260505205403 | 13 | 56 | 0.0 | 3.2 | 0.05 | 0.33 | 0.33 | 97 | 1014.6 |
| 20260505204503 | 13 | 52 | 0.0 | 3.2 | 0.05 | 0.33 | 0.33 | 97 | 1014.4 |
| 20260505203603 | 13 | 56 | 1.6 | 3.2 | 0.05 | 0.33 | 0.33 | 97 | 1014.4 |
| 20260505202918 | 13 | 76 | 0.0 | 3.2 | 0.05 | 0.33 | 0.33 | 97 | 1014.6 |
| 20260505201803 | 13 | 85 | 3.2 | 3.2 | 0.03 | 0.30 | 0.30 | 97 | 1014.5 |
| 20260505200903 | 13 | 15 | 0.0 | 3.2 | 0.00 | 0.28 | 0.28 | 98 | 1014.6 |
| 20260505200003 | 13 | 9 | 1.6 | 3.2 | 0.00 | 0.28 | 0.28 | 98 | 1014.7 |
| 20260505195403 | 13 | 27 | 3.2 | 3.2 | 0.00 | 0.28 | 0.28 | 97 | 1014.5 |
| 20260505194503 | 13 | 354 | 1.6 | 3.2 | 0.00 | 0.28 | 0.28 | 97 | 1014.7 |
| 20260505193604 | 13 | 2 | 0.0 | 3.2 | 0.00 | 0.28 | 0.28 | 97 | 1014.7 |
| 20260505192703 | 13 | 2 | 0.0 | 3.2 | 0.00 | 0.28 | 0.28 | 97 | 1014.6 |
| 20260505191803 | 13 | 351 | 0.0 | 3.2 | 0.00 | 0.28 | 0.28 | 97 | 1014.4 |
| 20260505190903 | 13 | 16 | 3.2 | 6.4 | 0.00 | 0.28 | 0.28 | 97 | 1014.6 |
| 20260505190218 | 13 | 31 | 0.0 | 3.2 | 0.00 | 0.28 | 0.28 | 97 | 1014.4 |
| 20260505185403 | 13 | 50 | 1.6 | 3.2 | 0.00 | 0.28 | 0.28 | 97 | 1014.2 |
| 20260505184503 | 13 | 55 | 0.0 | 3.2 | 0.00 | 0.28 | 0.28 | 97 | 1014.3 |
| 20260505183603 | 13 | 74 | 1.6 | 3.2 | 0.00 | 0.28 | 0.28 | 97 | 1014.0 |
| 20260505182703 | 13 | 25 | 0.0 | 3.2 | 0.00 | 0.28 | 0.28 | 97 | 1014.2 |
| 20260505181803 | 13 | 50 | 0.0 | 3.2 | 0.00 | 0.28 | 0.28 | 97 | 1014.2 |
| 20260505180903 | 13 | 46 | 0.0 | 3.2 | 0.00 | 0.28 | 0.28 | 97 | 1014.0 |
| 20260505180003 | 13 | 34 | 0.0 | 3.2 | 0.00 | 0.28 | 0.28 | 97 | 1014.2 |
| 20260505175403 | 13 | 11 | 0.0 | 3.2 | 0.00 | 0.28 | 0.28 | 97 | 1014.2 |
| 20260505174503 | 13 | 68 | 0.0 | 3.2 | 0.00 | 0.28 | 0.28 | 97 | 1014.4 |
| 20260505173603 | 13 | 0 | 0.0 | 0.0 | 0.00 | 0.28 | 0.28 | 97 | 1014.3 |
| 20260505172703 | 13 | 0 | 0.0 | 0.0 | 0.00 | 0.28 | 0.28 | 97 | 1014.3 |
| 20260505171803 | 13 | 112 | 0.0 | 3.2 | 0.00 | 0.28 | 0.28 | 96 | 1014.2 |
| 20260505170903 | 13 | 101 | 0.0 | 3.2 | 0.00 | 0.28 | 0.28 | 96 | 1014.3 |
| 20260505170003 | 13 | 77 | 0.0 | 3.2 | 0.03 | 0.28 | 0.28 | 96 | 1014.5 |
| 20260505165403 | 13 | 66 | 1.6 | 3.2 | 0.03 | 0.28 | 0.28 | 96 | 1014.3 |
| 20260505164503 | 13 | 0 | 0.0 | 0.0 | 0.03 | 0.28 | 0.28 | 96 | 1014.2 |
| 20260505163603 | 13 | 82 | 0.0 | 3.2 | 0.03 | 0.28 | 0.28 | 96 | 1014.5 |
| 20260505162916 | 13 | 344 | 0.0 | 3.2 | 0.03 | 0.28 | 0.28 | 96 | 1014.6 |
| 20260505161803 | 13 | 287 | 1.6 | 3.2 | 0.05 | 0.28 | 0.28 | 96 | 1014.7 |
| 20260505160903 | 13 | 290 | 1.6 | 3.2 | 0.05 | 0.28 | 0.28 | 95 | 1014.5 |